BEIDOU-2 M6 (C14)

Last updated on Thu Nov 21 2024 00:03:16 GMT+0000 (Coordinated Universal Time)

1 38775U 12050B 24325.36289748 -.00000019 00000+0 00000+0 0 9990 2 38775 56.0436 81.9495 0010607 342.1759 17.7687 1.86230950 82625
UTC large
Height (km)
Speed (km/s)
/
Latitude / Longitude
Inclination (degrees)
Orbital Period (minutes)
Azimuth
Elevation
Range (km)
Doppler Factor

Next 0 passes for location: London (51.5072 / 0.1276)

Sorry there are no passes over London.